Content
SEND FEEDBACK

Daily
Averages
Monthly
Summary
Spain

POZUELO DE ALARCON, SPAIN


Home > Europe > Spain
Elevation: 2156 feet     Latitude: 40 24N     Longitude: 003 42W

WEATHER
 
SELECT A DAY
Number of Records: 156,952;   Date Range: 7/1/96 - 8/28/14
 
SHARE

PRINT THIS DATA

[ ← Previous Day ]
WEATHER ALMANAC - JANUARY 23, 2013
[ Next Day → ]
[ °C ]   °F
Weather ElementAverageHighLow
Temperature41.1 °F46.4 °F (2:00 pm)35.6 °F (7:30 am)
Dewpoint30.6 °F41 °F (10:00 pm)24.8 °F (8:00 am)
Humidity68.4 %100 % (7:30 pm)49 % (2:30 pm)
Barometer29.98 in30.01 in (11:30 am)29.89 in (7:30 am)
Wind Speed16.4 mph24.2 mph (11:00 am)
Wind Gust40.3 mph (1:00 pm)
Weather ElementAverage
Visibility6.2 mi
Wind DirectionW (274.1 °)

Weather ElementTotal
Precipitation---
Heating Degree Days24 (Base 65)
Averaged from 29 records on January 23, 2013
WEATHER CONDITIONS BREAKOUT
WIND DIRECTION BREAKOUT
WEATHER BY HOUR - JANUARY 23, 2013
[ °C ]   °F
Local TimeTemperatureDewpointHumidityBarometerVisibilityWind DirectionWind SpeedGust SpeedPrecipitationEventsConditions
7:30 AM35.6 °F26.6 °F70 %29.89 inWNW (300°)13.8 mphClear
8:00 AM35.6 °F24.8 °F65 %29.92 inWNW (300°)15.0 mphClear
8:30 AM35.6 °F24.8 °F65 %29.92 inWNW (290°)13.8 mphClear
9:00 AM35.6 °F26.6 °F70 %29.92 inWest (280°)8.1 mphClear
9:30 AM37.4 °F24.8 °F60 %29.92 inWNW (300°)15.0 mphClear
10:00 AM37.4 °F26.6 °F65 %29.95 inWNW (290°)19.6 mphClear
10:30 AM39.2 °F26.6 °F61 %29.95 inWNW (290°)21.9 mph38.0 mphClear
11:00 AM39.2 °F26.6 °F61 %29.98 inWNW (290°)24.2 mph35.7 mphClear
11:30 AM41.0 °F28.4 °F61 %30.01 in6.2 miWNW (290°)20.7 mph33.4 mphPartly Cloudy
12:00 PM42.8 °F28.4 °F57 %30.01 in6.2 miWNW (290°)21.9 mphPartly Cloudy
12:30 PM44.6 °F28.4 °F53 %30.01 in6.2 miWNW (300°)18.4 mphScattered Clouds
1:00 PM44.6 °F28.4 °F53 %30.01 in6.2 miWNW (300°)24.2 mph40.3 mphScattered Clouds
2:00 PM46.4 °F30.2 °F53 %30.01 in6.2 miWNW (290°)19.6 mphScattered Clouds
2:30 PM44.6 °F26.6 °F49 %29.98 in6.2 miNW (310°)13.8 mphScattered Clouds
3:00 PM44.6 °F26.6 °F49 %29.98 in6.2 miNW (310°)11.5 mphScattered Clouds
3:30 PM44.6 °F28.4 °F53 %30.01 in6.2 miWest (280°)18.4 mphScattered Clouds
4:00 PM46.4 °F28.4 °F50 %30.01 in6.2 miWest (280°)16.1 mphScattered Clouds
4:30 PM44.6 °F28.4 °F53 %30.01 in6.2 miWest (270°)17.3 mphScattered Clouds
5:00 PM44.6 °F30.2 °F57 %30.01 in6.2 miWest (260°)17.3 mphScattered Clouds
5:30 PM42.8 °F30.2 °F61 %30.01 in6.2 miWest (260°)17.3 mphScattered Clouds
6:00 PM42.8 °F32.0 °F66 %30.01 in6.2 miWest (260°)17.3 mphScattered Clouds
6:30 PM42.8 °F32.0 °F66 %29.98 in6.2 miWSW (250°)11.5 mphScattered Clouds
7:00 PM41.0 °F37.4 °F87 %29.98 in6.2 miWSW (240°)12.7 mphLight Drizzle
7:30 PM39.2 °F39.2 °F100 %30.01 in6.2 miWSW (240°)17.3 mphLight Drizzle
8:00 PM39.2 °F39.2 °F100 %29.98 in6.2 miWSW (240°)15.0 mphLight Drizzle
8:30 PM39.2 °F39.2 °F100 %29.98 in6.2 miWSW (240°)13.8 mphLight Drizzle
9:00 PM39.2 °F39.2 °F100 %29.98 in6.2 miWSW (240°)11.5 mphScattered Clouds
9:30 PM39.2 °F39.2 °F100 %29.95 in6.2 miSW (230°)13.8 mphMostly Cloudy
10:00 PM41.0 °F41.0 °F100 %29.92 in6.2 miSW (230°)15.0 mphMostly Cloudy
Hourly data recorded from LEVS, located miles away from Pozuelo de Alarcon, Spain







STORIES FROM OUR PARTNERS